Hourly Weather Roundup
Issued by NWS Central Illinois

Home | Current Version | Previous Version | Text Only | Print | Product List | Glossary On
Versions: 1 2 3 4 5 6 7 8 9 10 11 12 13 14 15 16 17 18 19 20 21 22 23 24 25 26 27 28 29 30 31 32 33 34 35 36 37 38 39 40 41 42 43 44 45 46 47 48 49 50
000
NZUS43 KILX 282010
HWRILX

AREA WEATHER ROUNDUP
NATIONAL WEATHER SERVICE, LINCOLN IL
300 PM CDT SAT MAR 28 2015


CITY           SKY/WX    TMP DP  RH WIND       PRES   REMARKS
BLOOMINGTON    SUNNY     38   9  30 VRB3      30.30F
CHAMPAIGN      SUNNY     38  12  34 VRB3      30.30F
DECATUR        SUNNY     39  15  37 SE6       30.31F WCI  35
EFFINGHAM      SUNNY     39  11  30 CALM      30.32F
FLORA          SUNNY     38  19  47 N3        30.32F
GALESBURG      SUNNY     40  13  32 E9        30.28F WCI  34
JACKSONVILLE   SUNNY     40  18  41 SE7       30.30F
LACON          SUNNY     39   7  26 W3        30.30F
LAWRENCEVILLE  SUNNY     39  17  41 CALM      30.32F
LITCHFIELD     SUNNY     39  16  38 E6        30.29F
$$


CITY           SKY/WX    TMP DP  RH WIND       PRES   REMARKS
LINCOLN        SUNNY     40  17  38 S5        30.31F
MACOMB         SUNNY     40  13  33 SE8       30.31F WCI  35
MATTOON        SUNNY     37  15  40 VRB5      30.30F WCI  33
MT CARMEL AP   SUNNY     41  12  30 CALM      30.31F
OLNEY-NOBLE AP SUNNY     36  21  55 CALM      30.32F
PARIS          SUNNY     38  15  38 E3        30.31F
PEORIA         SUNNY     41  11  29 S7        30.30F
PONTIAC        SUNNY     38  11  32 CALM      30.31F
RANTOUL        SUNNY     39  13  35 N3        30.30F
ROBINSON       SUNNY     38  19  46 NW6       30.33F WCI  34
SPRINGFIELD    SUNNY     41  18  39 S8        30.31F
TAYLORVILLE    SUNNY     36  21  55 E5        30.31F WCI  32
$$

...REGIONAL REPORTS...


CITY           SKY/WX    TMP DP  RH WIND       PRES   REMARKS
CHICAGO O`HARE SUNNY     34   6  31 VRB3      30.31F
KANKAKEE       SUNNY     38  11  32 E5        30.31F WCI  34
MOLINE         SUNNY     41  10  28 S9        30.29F
MOUNT VERNON   SUNNY     43  16  33 SW3       30.31F
PITTSFIELD     SUNNY     42  19  40 E6        30.28F
QUINCY         SUNNY     42  17  36 SE10      30.26F
ROCKFORD       SUNNY     39  10  30 VRB3      30.31F
$$


CITY           SKY/WX    TMP DP  RH WIND       PRES   REMARKS
BURLINGTON     SUNNY     42  12  29 E6        30.27F
CEDAR RAPIDS   SUNNY     42  13  30 S14G21    30.24F WCI  35
DES MOINES     MOSUNNY   49  15  25 S13       30.19F
KIRKSVILLE     SUNNY     45  22  40 SE8       30.22F
OTTUMWA        SUNNY     45  14  28 S10       30.22F
ST LOUIS       SUNNY     45  19  35 SE10      30.29F
$$


CITY           SKY/WX    TMP DP  RH WIND       PRES   REMARKS
TERRE HAUTE    SUNNY     40  17  39 E3        30.30F
EVANSVILLE     SUNNY     42  20  41 N8        30.31F
INDIANAPOLIS   MOSUNNY   38  10  31 NW6       30.27F WCI  33
LAFAYETTE      SUNNY     35   8  32 VRB3      30.31F
MADISON        MOSUNNY   37   9  31 S9        30.27F WCI  30
MILWAUKEE      MOSUNNY   33  15  47 SE12      30.30F WCI  24
$$





USA.gov is the U.S. government's official web portal to all federal, state and local government web resources and services.